Gulkana, AK

10:52 AM AKDT on March 27, 2017 (GMT -0800)
Gulkana

Weather History for PAGK - July, 2014

Change the Weather History Date:

Friday, July 25, 2014

  Actual Average Record
Temperature  
Mean Temperature 50 °F -  
Max Temperature 64 °F 67 °F 91 °F (1953)
Min Temperature 37 °F 46 °F 33 °F (1991)
Degree Days  
Heating Degree Days 14    
Moisture  
Dew Point 43 °F    
Average Humidity 73    
Maximum Humidity 90    
Minimum Humidity 43    
Precipitation  
Precipitation 0.00 in - - ()
Sea Level Pressure  
Sea Level Pressure 29.80 in    
Wind  
Wind Speed 6 mph (SW)    
Max Wind Speed 13 mph    
Max Gust Speed 17 mph    
Visibility 10 miles    
Events Rain    
Averages and records for this station are not official NWS values.
T = Trace of Precipitation, MM = Missing Value Source: NWS Daily Summary

Daily Weather History Graph

Daily Weather History Graph

Search for Another Location

Airport or City:

Trip Planner

Search our weather history database for the weather conditions in past years. The results will help you decide how hot, cold, wet, or windy it might be!

Date:

Astronomy

Jul. 25, 2014 Rise Set
Actual Time 4:48 AM AKDT 10:46 PM AKDT
Civil Twilight 3:25 AM AKDT 12:07 AM AKDT
Nautical Twilight Sun does not rise Sun does not rise
Astronomical Twilight Sun does not rise Sun does not rise
Moon 4:14 AM AKDT (7/25) 9:23 PM AKDT (7/25)
Length of Visible Light 20h 42m
Length of Day
17h 57m
Waning Crescent, 1% of the Moon is Illuminated
Jul 25
Waning Crescent
Jul 26
New
Aug 3
First Quarter
Aug 10
Full
Aug 17
Last Quarter

Hourly Weather History & Observations

Time (AKDT) Temp. Windchill Dew Point Humidity Pressure Visibility Wind Dir Wind Speed Gust Speed Precip Events Conditions
12:53 AM 48.9 °F - 39.0 °F 69% 29.76 in 10.0 mi SSE 8.1 mph - N/A   Clear
1:53 AM 48.0 °F - 39.0 °F 71% 29.76 in 10.0 mi SSW 3.5 mph - N/A   Clear
2:53 AM 41.0 °F 39.0 °F 37.0 °F 86% 29.78 in 10.0 mi WSW 3.5 mph - N/A   Clear
3:53 AM 39.0 °F 36.8 °F 35.1 °F 86% 29.78 in 10.0 mi SW 3.5 mph - N/A   Clear
4:53 AM 37.9 °F 35.5 °F 35.1 °F 89% 29.78 in 10.0 mi WSW 3.5 mph - N/A   Clear
5:53 AM 41.0 °F 39.0 °F 37.0 °F 86% 29.77 in 10.0 mi SW 3.5 mph - N/A   Clear
6:53 AM 46.9 °F - 41.0 °F 80% 29.76 in 10.0 mi South 5.8 mph - N/A   Clear
7:53 AM 51.1 °F - 42.1 °F 71% 29.76 in 10.0 mi South 5.8 mph - N/A   Overcast
8:53 AM 53.1 °F - 42.1 °F 66% 29.77 in 10.0 mi South 6.9 mph - N/A   Overcast
9:53 AM 54.0 °F - 43.0 °F 66% 29.77 in 10.0 mi South 6.9 mph - N/A   Overcast
10:53 AM 59.0 °F - 44.1 °F 58% 29.77 in 10.0 mi Calm Calm - N/A   Overcast
11:53 AM 60.1 °F - 39.9 °F 47% 29.77 in 10.0 mi South 9.2 mph - N/A   Scattered Clouds
12:53 PM 61.0 °F - 41.0 °F 48% 29.77 in 10.0 mi South 6.9 mph - N/A   Mostly Cloudy
1:53 PM 63.0 °F - 42.1 °F 46% 29.76 in 10.0 mi SSE 12.7 mph 17.3 mph N/A   Scattered Clouds
2:53 PM 63.0 °F - 39.9 °F 43% 29.77 in 10.0 mi South 11.5 mph - N/A   Overcast
3:53 PM 55.9 °F - 46.9 °F 72% 29.81 in 10.0 mi WNW 9.2 mph - N/A   Overcast
4:53 PM 55.0 °F - 48.0 °F 77% 29.82 in 10.0 mi NW 9.2 mph - 0.00 in   Overcast
5:53 PM 55.9 °F - 46.9 °F 72% 29.82 in 10.0 mi NW 9.2 mph - N/A   Overcast
6:53 PM 53.1 °F - 46.9 °F 80% 29.83 in 10.0 mi NNW 5.8 mph - 0.00 in Rain Light Rain
7:53 PM 54.0 °F - 46.0 °F 75% 29.84 in 10.0 mi North 3.5 mph - 0.00 in   Overcast
8:53 PM 53.1 °F - 46.0 °F 77% 29.85 in 10.0 mi NNW 3.5 mph - 0.00 in Rain Light Rain
9:53 PM 51.1 °F - 46.0 °F 83% 29.86 in 10.0 mi Variable 4.6 mph - 0.00 in   Overcast
10:06 PM 50.0 °F - 45.0 °F 83% 29.85 in 10.0 mi WNW 3.5 mph - N/A   Mostly Cloudy
10:13 PM 50.0 °F - 45.0 °F 83% 29.85 in 10.0 mi WNW 4.6 mph - N/A   Overcast
10:53 PM 48.9 °F - 46.0 °F 90% 29.87 in 10.0 mi Calm Calm - 0.00 in Rain Light Rain
11:41 PM 48.9 °F - 46.0 °F 90% 29.87 in 10.0 mi Calm Calm - 0.00 in   Overcast
11:53 PM 48.9 °F - 45.0 °F 86% 29.88 in 10.0 mi Calm Calm - 0.00 in Rain Light Rain